Location: LDNL
(36.4545°S, 141.6685°E)
Time: 11:34:48
(UTC+10:00)

Vanguard 3 - Pass Details

Date: 26 January 2022
Orbit: 508 x 3258 km, 33.3° (Epoch: 25 May)

Event Time Altitude Azimuth Distance (km) Brightness Sun altitude
Rises 09:38:30 0° 261° (W) 6,966 11.4 33.4°
Reaches altitude 10° 09:44:59 10° 275° (W) 6,142 11.2 34.7°
Maximum altitude 09:57:09 20° 313° (NW) 5,286 11.1 37.2°
Drops below altitude 10° 10:08:37 10° 353° (N) 5,672 11.5 39.5°
Sets 10:14:23 0° 8° (N) 6,291 11.8 40.6°
